Regional Weather Roundup
Issued by NWS Boston, MA

Home | Current Version | Previous Version | Text Only | Print | Product List | Glossary On
Versions: 1 2 3 4 5 6 7 8 9 10 11 12 13 14 15 16 17 18 19 20 21 22 23 24 25 26 27 28 29 30 31 32 33 34 35 36 37 38 39 40 41 42 43 44 45 46 47 48 49 50
000
ASUS41 KBOX 181910
RWRBOX

REGIONAL WEATHER ROUNDUP
NATIONAL WEATHER SERVICE TAUNTON MA
300 PM EDT THU SEP 18 2014

NOTE:  "FAIR" INDICATES FEW OR NO CLOUDS BELOW 12,000 FEET WITH NO
SIGNIFICANT WEATHER AND/OR OBSTRUCTIONS TO VISIBILITY.  THE FOLLOWING
OBSERVATION LOCATIONS DO NOT REPORT PRESENT WEATHER...PROVINCETOWN...
SMITHFIELD...BLOCK ISLAND...KEENE...AND OXFORD.

MAZALL-182000-
EASTERN MASSACHUSETTS

CITY           SKY/WX    TMP DP  RH WIND       PRES   REMARKS
BOSTON         MOSUNNY   73  45  36 NW7       29.95F
BEVERLY        MOSUNNY   71  48  43 NW8       29.94F
LAWRENCE       MOSUNNY   70  48  45 N7        29.97S
BEDFORD        SUNNY     72  47  40 W7        29.94F
BLUE HILL        N/A     71  43  36 VRB3      29.95S
NORWOOD        MOSUNNY   74  44  34 NW9       29.94F
MARSHFIELD     NOT AVBL
PLYMOUTH       SUNNY     72  45  37 NE10      29.96S
TAUNTON        MOSUNNY   75  44  33 VRB3      29.94F
NEW BEDFORD    MOSUNNY   75  46  35 NE8       29.94S
$$

MAZALL-182000-
CAPE COD AND THE ISLANDS

CITY           SKY/WX    TMP DP  RH WIND       PRES   REMARKS
FALMOUTH       SUNNY     72  45  37 NE8G15    29.95F
HYANNIS        SUNNY     72  45  37 N12G17    29.94S
CHATHAM        SUNNY     70  45  40 VRB7      29.96S
PROVINCETOWN   SUNNY     68  52  56 NW5       29.96S
NANTUCKET      SUNNY     71  45  39 NW8       29.95S
MARTHAS VNYRD  SUNNY     74  46  36 N13       29.95S
$$

MAZALL-182000-
CENTRAL AND WESTERN MASSACHUSETTS

CITY           SKY/WX    TMP DP  RH WIND       PRES   REMARKS
WORCESTER      PTSUNNY   67  46  47 W8        29.98F
FITCHBURG      MOSUNNY   73  45  36 NW10      29.97S
ORANGE         MOSUNNY   68  47  46 W6        29.97F
SPRINGFIELD    PTSUNNY   69  50  49 NW5       29.97F
WESTFIELD      CLOUDY    74  49  41 N10       29.97F
NORTH ADAMS    MOSUNNY   69  48  47 VRB3      29.99F
PITTSFIELD     MOSUNNY   67  48  50 NW8       29.99S
$$

RIZALL-182000-
RHODE ISLAND

CITY           SKY/WX    TMP DP  RH WIND       PRES   REMARKS
PROVIDENCE     PTSUNNY   76  45  33 NW8       29.95F
NEWPORT        SUNNY     74  46  36 N6        29.95F
BLOCK ISLAND   SUNNY     72  48  43 W12       29.97S
SMITHFIELD     MOSUNNY   70  43  37 W5        29.96S
WESTERLY       MOSUNNY   75  46  35 VRB6      29.97S
$$

CTZALL-182000-
CONNECTICUT

CITY           SKY/WX    TMP DP  RH WIND       PRES   REMARKS
BRADLEY INTL   MOSUNNY   75  47  36 CALM      29.96F
HARTFORD       MOSUNNY   71  45  39 VRB6      29.97S
BRIDGEPORT     CLOUDY    73  51  46 SW9       29.98S
DANBURY        SUNNY     71  43  36 NW7       30.00F
GROTON         MOSUNNY   73  46  38 NW10      29.96S
NEW HAVEN      PTSUNNY   74  42  31 VRB5      29.97F
CHESTER        FAIR      70  46  43 CALM      29.99R
MERIDEN        MOSUNNY   75  42  30 W7        29.97F
WILLIMANTIC    PTSUNNY   74  45  35 N7        29.97F
OXFORD         MOSUNNY   70  45  40 N14       30.00S
$$

MEZ002-015-021-024-NHZ003-005-008-011-012-014-VTZ005-008-182000-
NORTHERN NEW ENGLAND

CITY           SKY/WX    TMP DP  RH WIND       PRES   REMARKS
PORTLAND ME    CLOUDY    67  48  50 NW7       29.95R
BANGOR ME      PTSUNNY   65  40  39 NW14      29.95R
CONCORD NH     MOSUNNY   71  47  42 N12       29.96F
MANCHESTER NH  PTSUNNY   70  46  42 NW9       29.95S
NASHUA NH      MOSUNNY   71  49  45 VRB7      29.96F
PORTSMOUTH NH  MOSUNNY   72  47  41 NW13      29.94S
JAFFREY NH     PTSUNNY   67  47  48 NW6       29.99S
KEENE NH       PTSUNNY   66  45  45 N7        29.99R
BURLINGTON VT  PTSUNNY   54  39  57 N13       30.10S
MT. WASHINGTON FOG       32  32 100 NW46G58     N/A  VSB 1/16WCI  15
$$

NYZ052-076-182000-
EASTERN NEW YORK

CITY           SKY/WX    TMP DP  RH WIND       PRES   REMARKS
ALBANY         PTSUNNY   69  48  47 NW13G20   30.00S
NEW YORK CITY  PTSUNNY   75  46  35 NW6       29.98S
$$

ANZALL-182000-
MARINE OBSERVATIONS

STATION/POSITION TIME  TEMP    WIND        PRES    VSBY  WAVE
                       AIR SEA DIR/SP/G                  HT/PER
                 (UTC) (F)     (DEG/KT/KT) (MB)    (MI)  (FT/S)
BOSTON BUOY      1850   65 62  160/  2/  4 1014.7F         2/13
BUZZARDS BAY     1900          240/ 10/ 11 1015.0F
NANTUCKET SOUND  1850   67 69  360/  4/  6 1014.3F         1/12
MASS BAY-STELLWA 1804   64 63  190/  4/  6   N/A    1 7/8
ISLE OF SHOALS   1900   67     330/  8/ 10 1013.6F
S OF BLOCK IS    1808      69                N/A           3/11
$$

......................KEY.........................
  SKY/WX - SKY CONDITION/PRESENT WEATHER
  TMP    - TEMPERATURE IN FAHRENHEIT
  DWPT   - DEWPOINT IN FAHRENHEIT
  RH     - RELATIVE HUMIDITY IN PERCENT
  WIND   - DIRECTION AND SPEED IN MPH
  PRES   - MEAN SEA LEVEL PRESSURE IN INCHES OF HG
  WCI    - WIND CHILL INDEX
  VSB    - VISIBILITY IN MILES
  HX     - HEAT INDEX
  TC     - TEMPERATURE IN CELSIUS
  VRB    - VARIABLE WIND DIRECTION
  N/A    - NOT AVAILABLE


USA.gov is the U.S. government's official web portal to all federal, state and local government web resources and services.